伽利略0102星导航星座 (GSAT0102 (GALILEO-FM2))

导读 | 星芒AI

GSAT0102,又名GALILEO-FM2,是欧洲伽利略卫星导航系统的一部分,由空中客车防务与航天公司制造。该卫星于2012年10月22日由阿丽亚娜5号火箭从法属圭亚那库鲁发射升空。GALILEO-FM2是一颗中地球轨道卫星,用于提供高精度的全球定位和授时服务。它与系统中的其他卫星协同工作,增强系统的可靠性和覆盖范围,支持民用和专业用户。

基本信息
目录编号:
37847
目录名称:
GALILEO-FM2
国际标识:
2011-060B
轨道中心:
EARTH
卫星名称:
伽利略0102星
卫星全名:
伽利略0102星导航星座 (GSAT0102 (GALILEO-FM2))
卫星状态:
在轨 (已飞行5111 天)
发射日期:
2011-10-21 UTC
国别 :
(ESA)
星等 :
--
轨道信息
数据来源 国际轨道数据
星历时间: 2025-10-17T21:07:56+0800
15小时前
查看轨道信息
半长轴: 29600.101km
偏心率: 0.000321
轨道倾角: 57.068°
近地点辐角 295.479°
升交点赤经 348.347°
平近点角 84.449°
近地点: 23212.464km
远地点: 23231.468km
周期: 844.694分钟
每日圈数: 1.704759
详细信息
平衡模式:
三轴稳定
覆盖范围:
全球
运营商:
欧盟空间计划局
运营商所在国:
法国大都会
使用方式:
暂无
卫星简介
伽利略定位系统(Galileo)是一个全球导航卫星系统,于2016年投入使用由欧盟通过ESA创建,由欧盟空间计划局(EUSPA)运营。该系统有两个地面操控站,并且在高纬度地区提供比其他系统更好的定位服务。该卫星仍在工作。
2D轨道图
3D轨道图
轨道高度分析图
轨道倾角分析图
轨道综合分析图
查看轨道综合分析图